Regional Weather Roundup
Issued by NWS

Home | Current Version | Previous Version | Graphics & Text | Print | Product List | Glossary On
Versions: 1 2 3 4 5 6 7 8 9 10 11 12 13 14 15 16 17 18 19 20 21 22 23 24 25 26 27 28 29 30 31 32 33 34 35 36 37 38 39 40 41 42 43 44 45 46 47 48 49 50
000
ASUS43 KLMK 270602
RWRKY
KENTUCKY REGIONAL WEATHER ROUNDUP
NATIONAL WEATHER SERVICE LOUISVILLE KY
200 AM EDT THU APR 27 2017

NOTE "FAIR" INDICATES FEW OR NO CLOUDS BELOW 12,000 FEET
WITH NO SIGNIFICANT WEATHER AND/OR OBSTRUCTIONS TO VISIBILITY.

KYZ001>023-026-027-061>063-070>075-270700-
WESTERN AND SOUTH CENTRAL KENTUCKY

CITY           SKY/WX    TMP DP  RH WIND       PRES   REMARKS
PADUCAH        MOCLDY    61  57  87 SW6       29.50R
HENDERSON      HVY RAIN  60  59  96 S12       29.61S
OWENSBORO      RAIN      61  59  93 S7        29.63F
HOPKINSVILLE   RAIN      60  60 100 E5        29.63F FOG
BOWLING GREEN  CLOUDY    74  59  59 S14G26    29.61R
GLASGOW        NOT AVBL
$$

KYZ024-025-028>034-038-045-046-053-270700-
NORTH CENTRAL KENTUCKY

CITY           SKY/WX    TMP DP  RH WIND       PRES   REMARKS
LOUISVILLE/SDF CLOUDY    73  58  59 S16       29.57S
LOUISVILLE/LOU CLOUDY    72  59  63 S7        29.58R
FORT KNOX      CLOUDY    70  58  66 S13       29.58R
$$

KYZ035>037-039>044-047>052-055>060-089>105-270700-
NORTHEAST KENTUCKY

CITY           SKY/WX    TMP DP  RH WIND       PRES   REMARKS
LEXINGTON      CLEAR     68  55  63 S9        29.63S
COVINGTON      CLOUDY    69  55  60 S10       29.59R
FRANKFORT      CLOUDY    66  53  63 S7        29.61R
$$

KYZ054-064>069-076>088-106>120-270700-
SOUTHEAST KENTUCKY

CITY           SKY/WX    TMP DP  RH WIND       PRES   REMARKS
JACKSON        CLOUDY    68  53  58 CALM      29.70R
LONDON         CLOUDY    70  54  56 S9        29.69R
SOMERSET       NOT AVBL
MIDDLESBORO    CLEAR     71  56  58 S20G30    29.73S
MONTICELLO     PTCLDY    72  57  59 S10G21    29.66S
$$




USA.gov is the U.S. government's official web portal to all federal, state and local government web resources and services.